Regional Weather Roundup
Issued by NWS

Home | Current Version | Previous Version | Graphics & Text | Print | Product List | Glossary On
Versions: 1 2 3 4 5 6 7 8 9 10 11 12 13 14 15 16 17 18 19 20 21 22 23 24 25 26 27 28 29 30 31 32 33 34 35 36 37 38 39 40 41 42 43 44 45 46 47 48 49 50
000
ASUS43 KMKX 280711
RWRWI

WISCONSIN REGIONAL WEATHER ROUNDUP
NATIONAL WEATHER SERVICE MILWAUKEE/SULLIVAN WI
200 AM CDT TUE JUL 28 2015

NOTE: "FAIR" INDICATES FEW OR NO CLOUDS BELOW 12,000 FEET WITH NO
SIGNIFICANT WEATHER AND/OR OBSTRUCTIONS TO VISIBILITY.

WIZ001-002-006>008-014>016-023>028-280800-
NORTHWEST WISCONSIN

CITY           SKY/WX    TMP DP  RH WIND       PRES   REMARKS
SUPERIOR ARPT  PTCLDY    69  65  87 CALM      29.89F
ASHLAND        CLEAR     63  62  97 CALM      29.94F
HAYWARD        CLEAR     71  64  78 SE6       29.95F
SIREN          CLEAR     73  68  86 SE3       29.91F
CUMBERLAND     CLEAR     68  64  88 SE5       29.94F
RICE LAKE      CLEAR     71  66  82 SE10      29.95F
CHETEK         CLEAR     71  67  89 SE5       29.95F
LADYSMITH      CLEAR     69  64  83 E5        29.99F
EAU CLAIRE     CLEAR     72  66  81 SE3       29.93F
MENOMONIE      CLEAR     70  68  95 E6        29.93F
NEW RICHMOND   CLEAR     70  69  95 SE6       29.91F
OSCEOLA        CLEAR     73  73 100 SE6       29.92F
$$

WIZ003>005-009-010-017-018-280800-
NORTH CENTRAL WISCONSIN

CITY           SKY/WX    TMP DP  RH WIND       PRES   REMARKS
MANITOWISH WTR CLEAR     67  64  92 S6        30.02S
ARBOR VITAE    CLEAR     71  64  79 S5        30.02F
WOODRUFF       CLEAR     71  64  79 S5        30.02F
RHINELANDER    CLEAR     68  61  78 S3        30.05S
EAGLE RIVER    CLEAR     63  63  99 CALM      30.03F
LAND O LAKES   CLEAR     58  57  98 CALM      30.05S FOG
PHILLIPS       CLEAR     68  63  85 SE3       30.00F
TOMAHAWK       CLEAR     63  61  92 CALM      30.04S
MEDFORD        CLEAR     67  62  85 SE6       30.01F
MERRILL        NOT AVBL
$$

WIZ029-030-035-036-043>047-280800-
CENTRAL WISCONSIN

CITY           SKY/WX    TMP DP  RH WIND       PRES   REMARKS
WAUSAU         CLEAR     67  63  87 E5        30.02S
MOSINEE        CLEAR     64  63  94 E3        30.04S
MARSHFIELD     CLEAR     69  60  73 SE5       30.01F
STEVENS POINT  CLEAR     62  59  93 CALM      30.03S
WAUPACA        CLEAR     64  64  97 CALM      30.02F FOG
WAUTOMA        CLEAR     64  64 100 E5        30.01F
WISC RAPIDS    CLEAR     69  61  75 SE3       30.02F
CAMP DOUGLAS   CLEAR     65  65 100 S3        29.99S
$$

WIZ011>013-019>022-031-037>040-048>050-280800-
NORTHEAST WISCONSIN

CITY           SKY/WX    TMP DP  RH WIND       PRES   REMARKS
ANTIGO         CLEAR     62  61  94 S6        30.05F
SHAWANO        CLEAR     69  64  82 CALM      30.02F
OCONTO         CLEAR     59  59 100 CALM      30.01F
STURGEON BAY   CLEAR     66  61  82 S6        30.05F
GREEN BAY      CLEAR     64  62  93 S3        30.02F FOG
MANITOWOC      CLEAR     63  62  97 MISG      30.04S FOG
APPLETON       CLEAR     68  63  83 CALM      30.04S
CLINTONVILLE   FOG       63  61  94 CALM      30.02S VSB 1/4
OSHKOSH        CLEAR     64  60  87 S3        30.02S
$$

WIZ032>034-041-042-053>061-280800-
SOUTHWEST WISCONSIN

CITY           SKY/WX    TMP DP  RH WIND       PRES   REMARKS
LA CROSSE      PTCLDY    72  69  90 SE8       29.95S
SPARTA         PTCLDY    68  64  87 CALM      29.99R
VIROQUA        PTCLDY    69  69 100 SE6       30.00S
BOSCOBEL       CLEAR     70  67  90 NE3       29.98S
PRAIRIE DU CHI CLEAR     70  68  93 E3        29.96F
PLATTEVILLE    CLEAR     70  66  88 E7        29.99S
$$

WIZ056-057-062-063-064-067-068-280800-
SOUTH CENTRAL WISCONSIN

CITY           SKY/WX    TMP DP  RH WIND       PRES   REMARKS
REEDSBURG      CLEAR     67  63  87 CALM      29.99F
BARABOO/DELLS  CLEAR     71  61  70 SE7       30.00F
LONE ROCK      CLEAR     69  64  84 E6        30.00S
MINERAL POINT  CLEAR     70  63  78 E6        30.01S
MADISON        CLEAR     70  62  76 MISG      30.00F
MIDDLETON      CLEAR     71  64  79 SE6       30.01F
WATERTOWN      CLEAR     63  63 100 E5        30.02S
MONROE         CLEAR     68  63  83 E5        30.01S
JANESVILLE     CLEAR     68  64  88 CALM      30.01S
$$

WIZ051-052-058>065-066-070>072-280800-
SOUTHEAST WISCONSIN

CITY           SKY/WX    TMP DP  RH WIND       PRES   REMARKS
MILWAUKEE      PTCLDY    70  64  81 NW3       30.03R
WAUKESHA       CLEAR     63  59  88 CALM      30.05S
MILWAUKEE/TIMM CLEAR     64  61  88 CALM      30.04S
RACINE         CLEAR     70  63  78 CALM      30.04R
BURLINGTON     CLEAR     59  58  98 CALM      30.03S
KENOSHA        CLEAR     64  62  93 N3        30.03R
FOND DU LAC    CLEAR     64  61  90 CALM      30.03S
SHEBOYGAN      CLEAR     61  59  93 CALM      30.04S
WEST BEND      CLEAR     59  55  88 CALM      30.05R
JUNEAU           N/A     65  60  86 E7        30.04S
$$

LSZ147-162-280800-
LAKE SUPERIOR

STATION/POSITION TIME  TEMP    WIND        PRES    WAVE
                       AIR SEA DIR/SP/G            HT/PER
                 (UTC) (F)     (DEG/KT/KT) (MB)    (FT/S)
W MID LAKE BUOY  0650   66 62  170/  6/  6 1014.1F   0
DEVILS ISLAND    0700   73     150/  8/ 10 1013.2F
PORT WING        0600   77     150/  5/ 12 1013.5F
SAXON HARBOR     0600   70                 1014.2
$$

LMZ867-665-643>646-280800-
LAKE MICHIGAN

STATION/POSITION TIME  TEMP    WIND        PRES    WAVE
                       AIR SEA DIR/SP/G            HT/PER
                 (UTC) (F)     (DEG/KT/KT) (MB)    (FT/S)
CHAMBERS ISLAND  0600   67     170/  2/  5 1016.6S
S GREEN BAY BUOY 0530   76 76  200/  4/  6 1018.1
N MID LAKE BUOY  0650   70 69  180/  6/  6 1016.3F   0
NORTHPORT PIER   0700   70     200/  4/  7 1016.6S
SISTER BAY       0644   69     160/  7/  9   N/A
ALGOMA LAKESHORE 0612             CALM       N/A
KEWAUNEE LAKESHO 0600   64     300/  2/  3 1016.7R
SHEBOYGAN LAKESH 0700   72     220/  2/  2 1017.1F
PORT WASHINGTON  0600   71      CALM  /  1 1017.6R
ATWATER BUOY     0700   74     110/  6/ 10 1018.1R
MILWAUKEE LAKESH 0600   71      80/  3/  4   N/A
KENOSHA   LAKESH 0700   74      70/  4/  8 1016.3R
$$

TC  - TEMPERATURE IN CELSIUS
VSB - VISIBILITY IN STATUTE MILES
WCI - WIND CHILL INDEX
HX  - HEAT INDEX



USA.gov is the U.S. government's official web portal to all federal, state and local government web resources and services.